Weather History for KCOD - March, 2013

Change the Weather History Date:

Wednesday, March 20, 2013

  Actual Average (KGEY) Record (KGEY)
Temperature  
Mean Temperature 38 °F 39 °F  
Max Temperature 55 °F 53 °F 74 °F (2007)
Min Temperature 21 °F 25 °F 5 °F (2002)
Degree Days  
Heating Degree Days 27 26  
Month to date heating degree days 602  
Since 1 July heating degree days 6573  
Cooling Degree Days 0 0  
Month to date cooling degree days 0  
Year to date cooling degree days 0  
Moisture  
Dew Point 17 °F    
Average Humidity 45    
Maximum Humidity 64    
Minimum Humidity 28    
Precipitation  
Precipitation 0.00 in 0.01 in 0.06 in (2006)
Month to date precipitation 0.21  
Year to date precipitation 0.62  
Sea Level Pressure  
Sea Level Pressure 29.84 in    
Wind  
Wind Speed 8 mph (SSW)    
Max Wind Speed 23 mph    
Max Gust Speed 34 mph    
Visibility 10 miles    
Events      
T = Trace of Precipitation, MM = Missing Value Source: NWS Daily Summary

Daily Weather History Graph

Daily Weather History Graph

Search for Another Location

Airport or City:

Trip Planner

Search our weather history database for the weather conditions in past years. The results will help you decide how hot, cold, wet, or windy it might be!

Date:

Astronomy

Mar. 20, 2013 Rise Set
Actual Time 7:18 AM MDT 7:28 PM MDT
Civil Twilight 6:49 AM MDT 7:58 PM MDT
Nautical Twilight 6:15 AM MDT 8:32 PM MDT
Astronomical Twilight 5:40 AM MDT 9:07 PM MDT
Moon 12:54 PM MDT (3/20) 3:13 AM MDT (3/20)
Length of Visible Light 13h 08m
Length of Day
12h 10m
First Quarter, 60% of the Moon is Illuminated
Mar 20
First Quarter
Mar 27
Full
Apr 2
Last Quarter
Apr 10
New
Apr 18
First Quarter

Hourly Weather History & Observations

Time (MDT) Temp. Windchill Dew Point Humidity Pressure Visibility Wind Dir Wind Speed Gust Speed Precip Events Conditions
12:15 AM 26.6 °F 18.2 °F 12.2 °F 55% 30.16 in 10.0 mi South 8.1 mph - N/A   Clear
12:35 AM 24.8 °F 16.1 °F 8.6 °F 50% 30.15 in 10.0 mi SE 8.1 mph - N/A   Clear
12:55 AM 26.6 °F 18.2 °F 10.4 °F 51% 30.13 in 10.0 mi South 8.1 mph - N/A   Clear
1:15 AM 24.8 °F 14.6 °F 10.4 °F 54% 30.12 in 10.0 mi South 10.4 mph - N/A   Clear
1:35 AM 23.0 °F - 10.4 °F 59% 30.11 in 10.0 mi Calm Calm - N/A   Clear
1:55 AM 21.2 °F - 10.4 °F 63% 30.11 in 10.0 mi Calm Calm - N/A   Partly Cloudy
2:15 AM 24.8 °F 16.1 °F 12.2 °F 59% 30.10 in 10.0 mi SSE 8.1 mph - N/A   Clear
2:35 AM 26.6 °F 17.5 °F 14.0 °F 59% 30.09 in 10.0 mi SSE 9.2 mph - N/A   Clear
2:55 AM 28.4 °F 17.5 °F 15.8 °F 59% 30.08 in 10.0 mi SSE 13.8 mph - N/A   Clear
3:15 AM 26.6 °F 17.5 °F 15.8 °F 64% 30.06 in 10.0 mi SSE 9.2 mph - N/A   Clear
3:55 AM 24.8 °F 20.5 °F 10.4 °F 54% 30.05 in 10.0 mi SSE 3.5 mph - N/A   Clear
4:15 AM 24.8 °F 15.3 °F 10.4 °F 54% 30.03 in 10.0 mi SSE 9.2 mph - N/A   Clear
4:35 AM 24.8 °F - 10.4 °F 54% 30.03 in 10.0 mi Calm Calm - N/A   Clear
4:55 AM 23.0 °F 18.4 °F 10.4 °F 59% 30.02 in 10.0 mi SSW 3.5 mph - N/A   Partly Cloudy
5:15 AM 24.8 °F 20.5 °F 8.6 °F 50% 30.01 in 10.0 mi WSW 3.5 mph - N/A   Clear
5:35 AM 24.8 °F 17.9 °F 8.6 °F 50% 30.00 in 10.0 mi WSW 5.8 mph - N/A   Clear
6:15 AM 21.2 °F - 8.6 °F 58% 29.98 in 10.0 mi Calm Calm - N/A   Mostly Cloudy
6:35 AM 21.2 °F 14.9 °F 6.8 °F 54% 29.97 in 10.0 mi South 4.6 mph - N/A   Scattered Clouds
6:55 AM 23.0 °F 18.4 °F 8.6 °F 54% 29.96 in 10.0 mi SSW 3.5 mph - N/A   Mostly Cloudy
7:15 AM 24.8 °F 19.1 °F 6.8 °F 46% 29.95 in 10.0 mi South 4.6 mph - N/A   Partly Cloudy
7:35 AM 24.8 °F 17.9 °F 5.0 °F 43% 29.94 in 10.0 mi SE 5.8 mph - N/A   Clear
7:55 AM 23.0 °F - 6.8 °F 50% 29.92 in 10.0 mi Calm Calm - N/A   Clear
8:35 AM 23.0 °F - 10.4 °F 59% 29.91 in 10.0 mi Calm Calm - N/A   Clear
8:55 AM 24.8 °F - 10.4 °F 54% 29.90 in 10.0 mi Calm Calm - N/A   Clear
9:15 AM 26.6 °F - 10.4 °F 51% 29.90 in 10.0 mi Calm Calm - N/A   Clear
9:35 AM 30.2 °F 23.4 °F 8.6 °F 40% 29.89 in 10.0 mi SSW 6.9 mph - N/A   Clear
9:55 AM 33.8 °F 27.0 °F 8.6 °F 35% 29.87 in 10.0 mi SSE 8.1 mph - N/A   Clear
10:15 AM 37.4 °F 32.1 °F 8.6 °F 30% 29.85 in 10.0 mi SSE 6.9 mph - N/A   Clear
10:35 AM 39.2 °F 33.6 °F 8.6 °F 28% 29.84 in 10.0 mi SE 8.1 mph - N/A   Partly Cloudy
10:55 AM 42.8 °F 39.3 °F 15.8 °F 34% 29.83 in 10.0 mi West 5.8 mph - N/A   Mostly Cloudy
11:15 AM 44.6 °F 43.1 °F 19.4 °F 37% 29.82 in 10.0 mi West 3.5 mph - N/A   Mostly Cloudy
11:35 AM 37.4 °F 29.8 °F 10.4 °F 33% 29.82 in 10.0 mi NE 11.5 mph - N/A   Scattered Clouds
11:55 AM 37.4 °F 29.3 °F 15.8 °F 41% 29.81 in 10.0 mi NE 12.7 mph - N/A   Mostly Cloudy
12:15 PM 37.4 °F 32.1 °F 15.8 °F 41% 29.80 in 10.0 mi NNE 6.9 mph - N/A   Overcast
12:35 PM 37.4 °F 29.8 °F 15.8 °F 41% 29.79 in 10.0 mi NNE 11.5 mph - N/A   Overcast
12:55 PM 42.8 °F 37.0 °F 15.8 °F 34% 29.78 in 10.0 mi NNE 10.4 mph - N/A   Mostly Cloudy
1:15 PM 44.6 °F 40.2 °F 19.4 °F 37% 29.77 in 10.0 mi NNE 8.1 mph - N/A   Clear
1:35 PM 48.2 °F - 19.4 °F 32% 29.75 in 10.0 mi East 10.4 mph - N/A   Scattered Clouds
1:55 PM 48.2 °F - 21.2 °F 34% 29.74 in 10.0 mi ESE 8.1 mph - N/A   Partly Cloudy
2:15 PM 50.0 °F - 21.2 °F 32% 29.73 in 10.0 mi West 18.4 mph 25.3 mph N/A   Scattered Clouds
2:35 PM 53.6 °F - 24.8 °F 33% 29.71 in 10.0 mi West 15.0 mph 28.8 mph N/A   Scattered Clouds
2:55 PM 55.4 °F - 24.8 °F 31% 29.71 in 10.0 mi West 19.6 mph 28.8 mph N/A   Scattered Clouds
3:15 PM 53.6 °F - 24.8 °F 33% 29.70 in 10.0 mi WSW 19.6 mph 27.6 mph N/A   Mostly Cloudy
3:55 PM 51.8 °F - 24.8 °F 35% 29.69 in 10.0 mi West 23.0 mph 29.9 mph N/A   Partly Cloudy
4:15 PM 51.8 °F - 24.8 °F 35% 29.69 in 10.0 mi West 19.6 mph 31.1 mph N/A   Clear
4:55 PM 53.6 °F - 24.8 °F 33% 29.68 in 10.0 mi West 19.6 mph 33.4 mph N/A   Scattered Clouds
5:15 PM 53.6 °F - 24.8 °F 33% 29.67 in 10.0 mi West 21.9 mph 34.5 mph N/A   Mostly Cloudy
5:55 PM 51.8 °F - 24.8 °F 35% 29.66 in 10.0 mi West 18.4 mph 33.4 mph N/A   Clear
6:15 PM 51.8 °F - 24.8 °F 35% 29.65 in 10.0 mi WSW 21.9 mph 31.1 mph N/A   Clear
6:35 PM 51.8 °F - 24.8 °F 35% 29.65 in 10.0 mi West 18.4 mph 25.3 mph N/A   Clear
7:15 PM 48.2 °F - 26.6 °F 43% 29.65 in 10.0 mi West 12.7 mph 24.2 mph N/A   Clear
7:35 PM 48.2 °F - 26.6 °F 43% 29.64 in 10.0 mi West 4.6 mph - N/A   Clear
7:55 PM 48.2 °F - 26.6 °F 43% 29.65 in 10.0 mi West 10.4 mph 19.6 mph N/A   Clear
8:15 PM 46.4 °F 41.9 °F 26.6 °F 46% 29.64 in 10.0 mi West 9.2 mph 16.1 mph N/A   Clear
8:55 PM 46.4 °F 44.3 °F 26.6 °F 46% 29.65 in 10.0 mi West 4.6 mph - N/A   Scattered Clouds
9:15 PM 46.4 °F - 26.6 °F 46% 29.65 in 10.0 mi Calm Calm - N/A   Mostly Cloudy
9:35 PM 46.4 °F 43.5 °F 28.4 °F 50% 29.65 in 10.0 mi West 5.8 mph - N/A   Mostly Cloudy
9:55 PM 44.6 °F 41.4 °F 24.8 °F 46% 29.64 in 10.0 mi SSW 5.8 mph - N/A   Mostly Cloudy
10:15 PM 39.2 °F - 24.8 °F 56% 29.63 in 10.0 mi Calm Calm - N/A   Mostly Cloudy
10:35 PM 44.6 °F - 26.6 °F 49% 29.63 in 10.0 mi Calm Calm - N/A   Mostly Cloudy
10:55 PM 41.0 °F 36.4 °F 24.8 °F 53% 29.62 in 10.0 mi SSE 6.9 mph - N/A   Scattered Clouds
11:35 PM 35.6 °F 29.2 °F 23.0 °F 60% 29.60 in 10.0 mi South 8.1 mph - N/A   Clear